Location: Waco, TX
(31.5480°N, 97.1670°W)
Time: 12:02:34
(UTC-05:00)

ISS - Pass Details

Date: 12 March 2018
Orbit: 402 x 409 km, 51.6° (Epoch: 16 August)

Event Time Altitude Azimuth Distance (km) Brightness Sun altitude
Rises 02:13:14 0° 251° (WSW) 2,358 - -60.6°
Reaches altitude 10° 02:15:36 10° 265° (W) 1,496 - -60.4°
Maximum altitude 02:18:24 24° 322° (NW) 913 - -60.2°
Drops below altitude 10° 02:21:12 10° 19° (NNE) 1,497 - -60.0°
Sets 02:23:33 0° 33° (NNE) 2,359 - -59.8°
